Regional Weather Roundup
Issued by NWS

Home | Current Version | Previous Version | Text Only | Print | Product List | Glossary Off
Versions: 1 2 3 4 5 6 7 8 9 10 11 12 13 14 15 16 17 18 19 20 21 22 23 24 25 26 27 28 29 30 31 32 33 34 35 36 37 38 39 40 41 42 43 44 45 46 47 48 49 50

000
ASUS45 KABQ 261210
RWRNM
NEW MEXICO REGIONAL WEATHER ROUNDUP
NATIONAL WEATHER SERVICE ALBUQUERQUE NM
600 AM MDT MON SEP 26 2016

NOTE: "FAIR" MEANS FEW OR NO CLOUDS BELOW 12,000 FEET AGL WITH NO
       SIGNIFICANT WEATHER OR OBSTRUCTIONS TO VISION.

      THIS PRODUCT IS RELEASED AS TWO VERSIONS.  ONE VERSION NEAR
      THE TOP OF THE HOUR CONTAINING PRELIMINARY DATA FROM ALBUQUERQUE
      AND OTHER STATIONS.  A FINAL VERSION WITH ADDITIONAL DATA IS
      ISSUED ABOUT 10 MINUTES AFTER THE HOUR.

NMZ501-503-504-510>518-261300-
NORTHWEST PLATEAU/NORTHCENTRAL MOUNTAINS

CITY           SKY/WX    TMP DP  RH WIND       PRES   REMARKS
FARMINGTON     FAIR      48  35  60 E6        30.44R
6HR MIN TEMP:  46; 6HR MAX TEMP:  54;

LOS ALAMOS     FAIR     N/A N/A N/A SW12      30.51F
SANTA FE       FAIR      41  32  70 CALM      30.49R
6HR MIN TEMP:  40; 6HR MAX TEMP:  55;

TAOS           FAIR      36  25  64 NE6       30.53R WCI  31
ANGEL FIRE     FAIR      24  22  91 CALM      30.59R

$$
NMZ402-403-502-505>509-261300-
WESTCENTRAL MOUNTAINS/SOUTHWEST MOUNTAINS

CITY           SKY/WX    TMP DP  RH WIND       PRES   REMARKS
GALLUP         FAIR      37  30  75 CALM      30.47R
6HR MIN TEMP:  37; 6HR MAX TEMP:  52;

SILVER CITY    FAIR      58  40  52 E6        30.32S

$$
NMZ407-409-411-412-261300-
SOUTHERN DESERTS

CITY           SKY/WX    TMP DP  RH WIND       PRES   REMARKS
DEMING         CLOUDY    61  46  57 E7        30.27F
6HR MIN TEMP:  60; 6HR MAX TEMP:  66;

LAS CRUCES     CLOUDY    63  38  39 NE7       30.29S
HOLLOMAN AFB   FAIR      64  36  35 NE15      30.25S
ALAMOGORDO     FAIR      64  36  34 E13G18    30.27S
T OR C         FAIR      59  38  45 N16       30.34R
6HR MIN TEMP:  59; 6HR MAX TEMP:  64;


$$
NMZ519>523-261300-
CENTRAL VALLEYS/CENTRAL HIGHLANDS

CITY           SKY/WX    TMP DP  RH WIND       PRES   REMARKS
ALBUQUERQUE    FAIR      53  34  48 E14       30.44S
6HR MIN TEMP:  52; 6HR MAX TEMP:  61;

DOUBLE EAGLE   CLEAR     48  34  57 E8        30.46F
MORIARTY ARPT  FAIR      32  29  88 NW7       30.49F WCI  26
6HR MIN TEMP:  32; 6HR MAX TEMP:  48;

CLINES CORNERS FAIR      42  30  62 NE10      30.50S
6HR MIN TEMP:  41; 6HR MAX TEMP:  46;

BELEN          NOT AVBL
SOCORRO        FAIR      55  37  49 CALM      30.41S
6HR MIN TEMP:  55; 6HR MAX TEMP:  64;


$$
NMZ524>526-539-540-261300-
SOUTHCENTRAL MOUNTAINS

CITY           SKY/WX    TMP DP  RH WIND       PRES   REMARKS
RUIDOSO        FAIR      46  37  71 SE6       30.48S

$$
NMZ527>531-261300-
NORTHEAST HIGHLANDS/NORTHEAST PLAINS

CITY           SKY/WX    TMP DP  RH WIND       PRES   REMARKS
LAS VEGAS      FAIR      34  30  85 CALM      30.52S
6HR MIN TEMP:  33; 6HR MAX TEMP:  41;

RATON          FAIR      34  30  85 NE8       30.48F WCI  27
6HR MIN TEMP:  34; 6HR MAX TEMP:  44;

CLAYTON        FAIR      42  35  76 NW6       30.44S
6HR MIN TEMP:  40; 6HR MAX TEMP:  51;


$$
NMZ532>537-261300-
EASTCENTRAL PLAINS

CITY           SKY/WX    TMP DP  RH WIND       PRES   REMARKS
TUCUMCARI      FAIR      46  34  62 CALM      30.40R
6HR MIN TEMP:  45; 6HR MAX TEMP:  53;

CANNON AFB     CLOUDY    49  42  78 N9        30.39R
6HR MIN TEMP:  49; 6HR MAX TEMP:  51;

CLOVIS AIRPORT FAIR      46  39  76 N9        30.39R

$$
NMZ028-029-538-261300-
SOUTHEAST PLAINS

CITY           SKY/WX    TMP DP  RH WIND       PRES   REMARKS
ROSWELL        MOCLDY    54  42  64 N7        30.36R
6HR MIN TEMP:  53; 6HR MAX TEMP:  62;

ARTESIA        MOCLDY    57  46  67 N9        30.35S
CARLSBAD       CLOUDY    58  49  72 N8        30.32R
6HR MIN TEMP:  58; 6HR MAX TEMP:  62; 6HR PCP: TRACE;

HOBBS          CLOUDY    59  45  58 N13       30.33R


$$



USA.gov is the U.S. government's official web portal to all federal, state and local government web resources and services.